{"data":{"norad_id":32404,"epoch":"2026-09-19T20:41:44.890368Z","epoch_age_seconds":69644,"freshness":"FRESH","line1":"1 32404U 08001A   26262.86232512  .00000008  00000+0  00000+0 0  9995","line2":"2 32404   6.1483  35.8238 0002348 170.3965 166.7229  1.00271413 68437","mean_motion":1.00271413,"eccentricity":0.0002348,"inclination_deg":6.1483,"raan_deg":35.8238,"arg_perigee_deg":170.3965,"mean_anomaly_deg":166.7229,"bstar":0,"rev_number":6843,"period_min":1436.1022318495,"perigee_km":35776.798943066,"apogee_km":35796.599550168,"semimajor_km":42164.836246617,"source":"CELESTRAK","updated_at":"2026-09-20T09:00:35.130883Z"}}